Flag for Italy Weather past 2 weeks in Trieste, Italy

Now
61 °F

Passing clouds.


Feels Like: 61 °F
Forecast: 61 / 76 °F
Wind: 5 mph from Northeast

Location: Trieste

Current Time: Sep 15, 2014 at 6:49:59 AM

Latest Report: Sep 15, 2014 at 6:00 AM


Visibility: 13 mi

Pressure: 29.98 "Hg

Humidity: 88%

Dew point: 57 °F

Location of TriesteLocation

Historic Weather in Trieste — Graph

°F

Trieste temperature yesterday

Maximum temperature yesterday: 71 °F (at 4:00 PM)
Minimum temperature yesterday: 59 °F (at 6:00 AM)
Average temperature yesterday: 65 °F

Past Weeks' High & Low Weather Summary

 TemperatureHumidityPressure
High81 °F (Sep 5, 3:00 PM)97% (Sep 3, 1:00 AM)30.02 "Hg (Sep 3, 1:00 AM)
Low56 °F (Sep 13, 5:00 AM)2% (Sep 6, 5:00 AM)29.68 "Hg (Sep 1, 12:00 AM)
Average68 °F72%29.89 "Hg
* Reported Aug 31 5:00 AM — Sep 15 5:00 AM, Trieste, Weather by CustomWeather, © 2014

Note: Actual official high and low records may vary slightly from our data, if they occured in-between our weather recording intervals... More about our weather records

Advertising

Trieste weather history for previous 24 hours

 ConditionsComfort  
Time TempWeatherWind HumidityBarometerVisibility
5:00 AM
Sep 15
61 °FPassing clouds.5 mph84%29.98 "Hg12 mi
4:00 AM60 °FPassing clouds.7 mph90%29.98 "Hg12 mi
3:00 AM62 °FPassing clouds.10 mph89%29.98 "Hg12 mi
2:00 AM62 °FPassing clouds.7 mph87%29.98 "Hg12 mi
1:00 AM63 °FPassing clouds.10 mph82%29.98 "Hg12 mi
12:00 AM63 °FPassing clouds.6 mph88%29.98 "Hg12 mi
11:00 PM
Sep 14
63 °FPassing clouds.7 mph92%29.98 "Hg12 mi
10:00 PM63 °FPassing clouds.7 mph92%29.98 "Hg12 mi
9:00 PM64 °FPassing clouds.8 mph90%29.99 "Hg12 mi
8:00 PM66 °FOvercast.7 mph68%29.98 "Hg12 mi
7:00 PM68 °FOvercast.5 mph75%29.97 "Hg12 mi
6:00 PM70 °FPartly sunny.6 mph68%29.96 "Hg12 mi
5:00 PM70 °FScattered clouds.7 mph68%29.97 "Hg12 mi
4:00 PM71 °FPartly sunny.6 mph66%29.97 "Hg12 mi
3:00 PM70 °FPassing clouds.6 mph69%29.98 "Hg12 mi
2:00 PM70 °FPartly sunny.6 mph69%29.99 "Hg12 mi
1:00 PM70 °FPartly sunny.7 mph67%29.99 "Hg12 mi
12:00 PM70 °FPartly sunny.6 mph66%29.99 "Hg12 mi
11:00 AM68 °FPartly sunny.5 mph69%30.00 "Hg12 mi
10:00 AM64 °FOvercast.2 mph78%29.99 "Hg12 mi
9:00 AM64 °FOvercast.3 mph73%29.99 "Hg12 mi
8:00 AM59 °FPartly sunny.6 mph87%29.99 "Hg12 mi
7:00 AM59 °FPartly sunny.6 mph80%29.99 "Hg12 mi
6:00 AM59 °FPassing clouds.6 mph77%29.98 "Hg12 mi
Weather by CustomWeather, © 2014

See weather overviewHow to use our weather pages